Theta_e
297 292 288 291 292 294 292 291 290 294 297 295 295 292 293 296 295 294 294 295 296 296 300 303 304 304 305 304 304 304 305 305 305 304 303 304 304 305 304 305 306 306 307 308
292 288 294 296 295 294 293 291 290 294 296 293 293 289 292 294 293 293 293 293 295 296 299 301 302 303 303 303 304 305 305 305 306 305 305 305 305 305 305 305 305 307 307 308
290 292 296 295 294 292 291 289 288 290 292 293 292 287 289 292 293 293 292 294 294 296 297 300 301 302 302 302 303 305 305 306 306 307 306 306 307 306 305 305 304 305 307 308
290 294 294 293 292 292 288 292 293 291 288 281 291 279 283 289 289 289 290 291 292 294 298 300 301 302 302 301 303 304 305 305 306 306 305 304 303 302 304 304 305 305 307 308
287 290 291 291 291 294 289 294 292 291 287 284 285 281 285 289 286 286 288 289 290 293 294 295 297 298 299 300 300 301 302 303 304 304 304 304 305 304 305 304 305 305 306 308
290 294 293 292 293 294 295 293 293 291 287 278 284 283 281 283 286 286 287 288 289 290 291 292 294 295 295 294 295 298 300 299 301 303 303 306 305 306 305 307 307 308 307 308
289 289 292 294 290 293 293 290 281 280 276 278 285 285 280 285 287 287 286 286 287 288 287 288 289 289 291 291 292 294 294 294 296 297 300 305 305 306 306 306 307 308 310 311
282 281 289 293 291 288 289 289 282 275 277 280 284 281 281 286 288 288 287 286 286 285 286 287 287 288 288 289 289 290 291 291 293 295 297 300 304 305 306 307 307 307 308 310
283 281 290 292 292 292 288 285 290 281 277 279 281 281 284 286 285 285 284 284 283 284 285 285 286 286 287 287 287 288 288 289 290 291 292 292 295 297 299 302 304 306 308 309
288 280 287 290 292 291 289 292 285 283 274 275 279 279 281 282 282 283 282 281 282 283 283 284 285 286 286 287 287 287 288 288 289 289 289 290 290 292 293 295 295 297 300 303
292 285 283 288 286 287 287 286 287 287 283 279 276 277 283 284 283 281 282 283 282 282 283 283 284 285 285 286 286 285 286 287 287 288 288 288 289 289 290 290 291 293 295 297
293 286 279 283 286 289 289 288 288 282 280 280 280 277 285 284 283 283 282 283 282 283 283 283 283 283 283 284 284 283 284 284 285 286 286 286 287 288 288 288 289 290 290 292
294 285 276 280 285 287 285 287 288 286 284 280 277 277 284 284 283 283 282 282 282 282 281 282 281 279 279 281 281 280 280 281 282 282 282 282 283 283 284 285 286 288 289 289
296 288 285 280 282 285 282 285 287 286 279 279 279 277 279 281 281 282 282 282 281 280 280 279 278 277 278 279 279 279 279 279 280 280 280 279 280 281 282 282 283 283 285 286
292 285 285 286 287 287 285 285 286 284 285 281 281 281 281 282 281 282 282 282 280 280 279 279 278 277 277 278 278 278 278 278 279 278 278 278 279 280 280 281 281 282 282 283
290 284 285 282 287 284 282 286 286 286 285 282 282 280 285 284 283 282 283 281 279 278 278 278 278 277 276 277 277 278 277 278 278 278 277 278 278 278 278 279 280 280 280 281
286 283 283 279 284 282 277 282 285 283 282 283 280 282 282 281 282 282 281 281 278 278 277 277 276 276 276 276 277 276 277 278 277 277 277 276 276 276 277 277 278 278 278 279
284 281 280 277 280 271 279 282 283 283 280 282 281 281 282 281 281 281 282 279 278 277 277 277 276 275 275 275 276 277 277 276 276 275 275 274 274 274 275 276 276 276 277 277
283 281 276 275 275 276 278 279 281 282 280 283 281 280 280 280 280 278 281 280 278 277 277 277 276 275 275 274 275 276 275 274 274 273 273 273 273 273 273 273 274 275 275 276
282 282 276 269 269 268 278 279 282 281 276 283 284 281 280 279 275 276 279 279 278 277 277 276 276 276 274 274 275 274 273 272 271 272 272 272 272 272 272 272 273 274 274 275
266 268 269 266 266 271 279 280 282 273 277 283 284 282 280 278 278 279 279 278 278 277 276 275 274 274 273 274 274 273 272 270 271 271 270 271 271 271 272 273 273 273 273 274
271 269 266 264 265 270 280 279 277 278 280 282 282 282 281 279 279 278 277 276 276 275 275 274 273 273 274 273 273 272 270 271 270 268 268 268 269 270 272 271 272 272 272 272
268 272 271 273 272 273 279 278 278 279 278 279 279 280 280 278 276 276 276 275 275 274 275 274 272 273 272 273 272 270 269 269 267 265 266 267 268 270 270 269 269 270 270 270
269 268 270 272 271 272 274 278 279 280 279 280 279 279 279 277 276 276 277 276 275 275 274 273 272 271 271 270 270 269 268 266 263 263 264 266 267 266 267 268 269 269 269 268
272 272 270 270 273 274 271 277 280 281 280 279 278 278 278 277 277 276 276 275 275 274 273 272 271 270 269 268 267 266 265 263 262 263 264 265 265 265 265 266 267 268 269 270
273 272 271 271 275 276 278 280 281 279 278 278 276 274 275 276 276 275 275 275 274 272 271 270 269 267 267 265 264 262 258 260 259 261 262 262 263 263 264 264 264 268 269 270
Wind_Speed
2 3 8 10 8 3 1 5 6 3 3 4 3 8 8 9 16 15 14 14 14 13 11 14 14 13 12 11 11 9 8 6 5 3 2 2 2 2 2 3 4 4 3 5
5 8 3 6 7 5 2 2 3 3 3 4 7 8 8 11 11 12 12 13 12 11 11 13 14 15 14 12 11 11 9 7 5 3 1 1 1 2 1 2 3 3 3 4
12 3 15 7 4 5 2 2 1 4 2 2 10 3 4 7 11 13 13 9 11 9 10 12 14 13 13 11 10 9 8 7 6 6 3 3 2 3 3 3 2 3 3 3
4 3 11 6 5 5 3 3 3 2 2 3 3 4 3 7 10 12 10 10 11 12 9 10 12 14 12 8 8 8 7 7 7 8 5 6 4 3 2 2 3 3 4 4
7 6 9 7 5 10 5 2 6 3 2 3 3 5 4 7 7 9 9 10 9 10 13 14 14 14 13 13 9 7 8 9 8 8 7 5 7 3 3 2 5 4 4 4
2 0 3 4 1 8 6 5 4 2 3 2 5 6 3 1 2 5 7 9 8 9 12 12 12 13 11 12 12 11 12 13 12 9 8 8 7 6 4 6 5 4 2 3
2 2 1 1 7 5 3 5 2 3 3 5 5 4 1 5 7 8 8 7 6 7 9 10 11 10 11 13 13 11 12 13 12 12 11 8 7 7 6 6 5 6 5 4
6 2 6 3 5 8 6 4 6 8 5 4 3 5 4 6 9 10 9 6 6 7 7 10 10 9 10 12 12 12 12 12 13 13 13 13 11 5 5 5 4 5 4 4
6 2 2 2 1 5 6 5 3 6 3 3 4 3 1 7 8 9 8 7 6 6 7 9 9 9 10 11 12 12 12 13 13 13 11 13 13 13 12 13 11 9 8 7
1 6 2 1 1 1 3 5 3 3 4 4 3 4 4 10 10 7 6 6 6 6 7 7 8 10 9 10 9 12 12 12 12 12 12 10 12 13 13 11 13 13 11 12
1 5 2 3 4 5 2 2 2 3 4 5 4 4 1 9 11 10 7 5 6 6 6 6 8 8 9 9 10 11 12 12 13 12 12 12 12 13 12 12 13 13 13 14
1 5 4 3 1 1 1 3 4 5 4 1 2 2 5 9 10 10 9 7 5 6 6 6 6 7 8 9 10 11 11 12 12 11 11 12 12 12 12 12 12 13 13 13
4 1 4 5 4 3 3 4 3 4 3 4 5 3 4 8 9 9 10 7 6 6 6 6 7 8 8 9 9 10 11 11 11 11 11 12 13 13 13 13 13 13 12 12
5 3 2 4 3 0 5 5 5 5 3 4 4 7 8 10 11 10 9 8 7 6 6 5 6 6 7 8 8 9 10 10 10 10 11 12 13 12 12 12 12 13 13 12
5 4 3 3 4 3 2 2 6 6 4 5 6 7 15 15 13 10 9 9 8 7 7 6 6 6 6 6 6 7 8 8 8 10 11 11 11 11 11 12 12 12 12 11
1 3 3 2 2 4 2 1 3 3 5 7 6 2 7 13 11 9 10 9 8 7 7 7 7 7 6 6 6 7 7 8 9 9 11 11 11 11 11 12 11 11 12 12
4 6 3 3 3 4 5 7 6 3 2 4 6 6 12 14 14 12 10 8 8 8 7 6 6 6 5 5 4 5 6 6 7 8 9 10 11 11 12 12 12 13 14 13
5 4 3 3 2 3 2 1 2 4 2 4 7 13 11 11 7 8 6 8 9 9 7 6 5 5 5 4 5 5 6 7 8 9 9 10 11 11 11 11 11 11 11 11
3 4 3 6 4 4 2 5 7 7 6 7 11 12 13 12 7 2 5 5 6 7 6 5 5 6 5 5 5 5 6 6 8 10 10 11 11 11 11 11 12 11 10 10
3 5 5 3 6 8 2 3 2 1 5 12 12 15 16 10 5 5 9 8 8 7 6 6 6 5 5 5 5 6 7 8 9 10 11 10 10 10 10 10 11 10 9 10
3 4 5 2 2 7 3 5 2 6 6 11 15 14 14 6 2 8 12 7 7 6 7 6 6 5 5 5 5 6 5 7 7 9 10 10 10 11 9 10 9 10 11 11
6 7 4 3 4 8 7 5 9 4 4 10 9 12 12 9 10 12 10 9 8 8 6 5 5 5 4 5 4 4 5 6 7 9 9 9 9 8 9 11 10 10 10 10
2 6 6 8 6 4 2 3 2 3 4 5 7 9 12 12 7 9 8 8 7 7 6 5 5 5 5 5 5 4 5 6 8 7 7 7 7 7 8 9 10 8 9 8
4 3 2 4 4 3 3 2 2 4 5 7 7 12 11 10 11 8 8 8 7 7 6 5 5 5 4 4 5 4 5 6 5 6 7 7 7 8 7 7 6 7 7 8
4 5 6 4 1 2 4 6 7 7 8 8 7 6 8 11 9 9 7 8 7 6 6 5 5 4 5 4 4 4 4 4 5 5 7 7 7 7 8 7 7 8 8 10
7 9 7 8 10 7 7 14 9 10 8 11 9 5 4 8 10 7 7 6 6 7 5 5 4 5 4 4 3 2 3 3 3 6 6 5 6 6 7 7 8 11 15 19
Wind_Direction
198 123 196 196 211 298 271 183 119 141 169 127 198 68 51 56 58 52 43 35 34 24 9 19 20 29 46 44 62 68 76 54 50 28 14 26 51 39 21 27 31 31 24 11
75 246 157 224 218 229 325 110 96 77 146 98 80 85 72 61 68 63 51 39 34 25 27 33 31 36 37 44 43 48 51 45 39 49 359 117 115 75 84 358 12 20 28 28
170 198 189 217 181 158 264 141 129 131 202 106 117 144 126 74 77 67 51 41 32 29 40 39 39 35 37 36 40 46 42 31 24 23 11 9 25 35 26 3 349 341 9 38
177 202 169 166 159 115 196 228 191 123 74 199 158 236 217 119 79 63 53 38 35 21 31 50 45 42 36 15 35 37 37 26 23 22 33 50 53 39 334 330 321 342 355 15
210 162 158 162 203 133 238 280 188 165 183 56 311 82 306 144 61 51 51 44 35 32 38 39 44 39 30 23 16 17 26 30 20 25 32 36 35 32 318 8 356 352 340 346
119 247 115 172 120 157 144 93 48 120 107 25 232 137 226 37 68 92 68 52 33 35 40 39 38 38 30 24 20 24 27 25 15 12 19 43 28 15 15 9 8 357 349 345
94 57 353 150 86 28 108 120 47 9 9 221 332 110 41 103 86 101 90 64 37 40 40 36 36 28 31 28 22 25 23 25 14 14 11 14 23 16 15 9 6 6 359 4
146 203 179 182 188 177 167 181 159 182 189 207 328 208 147 120 106 98 86 83 67 53 46 44 40 35 36 33 29 25 26 24 17 16 15 16 11 15 17 13 356 352 352 339
151 114 28 53 324 151 201 185 169 103 32 76 156 77 52 121 103 97 89 70 60 55 49 52 42 40 39 35 30 25 26 26 23 23 20 20 17 19 14 18 15 7 360 350
150 109 335 253 215 36 135 157 96 3 125 227 233 177 179 171 141 112 98 94 74 63 52 51 45 40 38 39 32 29 31 31 27 27 25 24 24 20 17 19 15 7 3 3
42 103 247 122 209 172 145 164 186 130 148 171 160 232 285 165 146 133 112 93 88 76 61 54 46 38 34 34 36 31 28 30 28 26 26 25 23 22 23 20 11 9 4 2
3 116 137 190 197 262 354 180 152 136 223 232 148 216 97 114 127 127 124 116 101 89 77 64 50 42 38 34 33 30 27 31 28 24 26 26 24 22 24 21 16 10 7 6
173 69 91 8 0 339 205 197 129 123 86 198 140 202 141 121 125 129 129 121 107 90 72 65 59 46 37 33 35 29 29 27 28 27 28 26 23 20 18 12 11 11 8 8
83 84 117 159 137 128 174 188 180 148 126 180 202 150 187 163 147 145 140 128 116 106 91 81 69 57 48 38 36 30 31 24 24 28 28 27 21 14 10 9 7 10 4 5
77 130 93 81 28 41 41 180 184 178 180 169 176 171 184 175 161 154 142 134 123 112 96 89 78 62 46 45 39 35 33 26 20 29 27 20 11 9 5 4 1 2 3 360
22 116 123 82 116 73 19 296 82 107 104 90 133 141 150 138 129 147 151 138 129 118 105 96 86 74 53 43 43 36 31 25 25 27 23 11 7 4 3 360 358 358 357 354
128 134 131 153 135 83 311 217 191 124 62 127 184 172 144 146 153 154 139 135 133 125 119 108 100 90 69 41 34 46 35 26 31 26 19 11 2 360 357 352 355 355 355 348
128 99 93 123 138 198 269 341 6 129 143 132 99 136 146 132 104 119 131 141 138 136 132 121 111 100 69 41 27 41 41 33 28 21 13 6 359 356 354 354 354 350 349 344
24 116 108 144 190 298 264 207 170 176 214 175 135 123 121 120 95 111 159 142 135 128 132 129 122 116 90 51 26 43 49 36 25 16 6 0 354 350 350 351 347 345 341 338
30 55 111 111 144 196 237 175 151 138 289 173 146 148 147 146 157 202 155 127 118 125 128 122 117 103 82 43 36 44 42 30 19 6 357 349 349 347 344 341 340 335 335 332
39 14 145 157 189 290 193 155 128 102 236 145 151 155 156 170 185 131 130 126 132 130 125 111 103 102 97 63 47 44 51 29 6 357 347 348 347 340 338 337 334 335 335 335
159 139 187 80 77 268 149 88 169 206 74 134 142 157 152 120 118 124 125 132 134 136 125 122 119 116 107 81 64 48 40 9 6 352 346 340 336 334 341 335 332 335 333 332
263 181 182 173 213 242 197 172 234 139 134 144 125 135 136 139 137 137 142 148 154 157 147 137 140 133 108 78 67 46 20 7 353 342 336 328 324 329 338 334 334 331 335 333
272 181 161 66 275 225 212 329 151 134 123 128 120 138 140 142 144 142 147 158 159 156 155 149 149 144 117 81 71 56 23 7 346 332 330 328 336 336 335 334 329 330 334 332
186 126 170 269 239 38 284 218 173 143 129 118 112 128 137 140 151 153 156 163 165 159 146 152 161 152 121 94 69 44 26 9 349 337 333 339 337 332 330 331 330 333 326 323
187 180 173 213 193 170 207 183 169 153 158 149 134 115 131 146 155 150 160 161 156 158 144 141 145 130 116 97 73 37 8 9 336 334 337 334 328 329 330 329 323 328 326 327